GW2259 Weather Reports


time (UTC)temp
F
wind
direction
speed
knots
gust
knots
rain 1hr
in
rain 24hr
in
rain mn
in
humidity
%
barometer
mb
20260506134536 53 358 6.1 13.0 0.33 0.33 0.33 94 1012.7
20260506133034 54 20 6.1 11.3 0.15 0.15 0.15 93 1012.9
20260506131543 55 18 5.2 16.5 0.03 0.03 0.03 92 1013.0
20260506130035 57 5 7.0 13.0 0.00 0.00 0.00 87 1010.5
20260506124536 58 58 5.2 10.4 0.00 0.00 0.00 85 1010.7
20260506123035 59 37 5.2 7.8 0.00 0.00 0.00 84 1010.9
20260506121534 59 30 2.6 6.1 0.00 0.00 0.00 85 1010.3
20260506120039 60 25 3.5 9.6 0.00 0.00 0.00 84 1010.2
20260506114538 60 32 0.9 6.1 0.00 0.00 0.00 84 1010.3
20260506113033 61 1 2.6 5.2 0.00 0.00 0.00 84 1010.1
20260506111533 61 8 1.7 7.0 0.00 0.00 0.00 84 1010.0
20260506110038 62 17 1.7 5.2 0.00 0.00 0.00 83 1010.1
20260506104537 62 347 3.5 6.1 0.00 0.00 0.00 83 1010.2
20260506103035 62 321 0.9 3.5 0.00 0.00 0.00 83 1010.1
20260506101534 63 15 0.9 5.2 0.00 0.00 0.00 83 1009.8
20260506100032 63 6 2.6 4.3 0.00 0.00 0.00 82 1009.7
20260506094536 64 335 0.9 2.6 0.00 0.00 0.00 84 1009.7
20260506093036 64 11 0.9 2.6 0.00 0.00 0.00 84 1009.5
20260506091536 64 8 0.9 1.7 0.00 0.00 0.00 83 1009.2
20260506090035 64 14 0.9 2.6 0.00 0.00 0.00 84 1009.0
20260506084540 64 337 0.9 2.6 0.00 0.00 0.00 84 1009.1
20260506083037 64 41 0.9 4.3 0.00 0.00 0.00 85 1009.0
20260506081535 64 42 0.9 3.5 0.00 0.00 0.00 85 1009.1
20260506073035 64 0 0.0 0.9 0.00 0.00 0.00 86 1008.6
20260506071536 65 0 0.9 1.7 0.00 0.00 0.00 85 1008.8
20260506061535 70 0 0.0 0.9 0.00 0.00 0.00 86 1008.5
20260506044543 72 204 0.9 1.7 0.00 0.00 0.00 81 1008.6
20260506043035 72 162 0.0 1.7 0.00 0.00 0.00 80 1008.5
20260506041534 73 264 0.0 4.3 0.00 0.00 0.00 79 1008.6
20260506040035 72 252 0.9 2.6 0.00 0.00 0.00 80 1008.6
20260506034538 73 250 0.9 3.5 0.00 0.00 0.00 80 1008.4
20260506033038 73 165 2.6 4.3 0.00 0.00 0.00 76 1008.2
20260506031537 74 204 1.7 4.3 0.00 0.00 0.00 74 1008.0
20260506030055 74 197 2.6 4.3 0.00 0.00 0.00 71 1007.8
20260506024547 73 182 1.7 2.6 0.00 0.00 0.00 73 1007.8
20260506023034 75 114 0.9 1.7 0.00 0.00 0.00 68 1007.5
20260506021537 76 0 0.0 3.5 0.00 0.00 0.00 66 1007.1
20260506020035 78 146 0.0 1.7 0.00 0.00 0.00 58 1006.9
20260506014539 78 141 0.9 1.7 0.00 0.00 0.00 59 1006.7
20260506013036 79 135 0.9 1.7 0.00 0.00 0.00 61 1006.4
20260506011539 80 85 0.9 1.7 0.00 0.00 0.00 55 1006.3
20260506010043 84 181 0.0 0.0 0.00 0.00 0.00 50 1006.0
20260506004545 88 180 0.9 1.7 0.00 0.00 0.00 43 1005.7
20260506003039 92 0 0.0 1.7 0.00 0.00 0.00 41 1005.8
20260506001536 92 202 0.9 2.6 0.00 0.00 0.00 37 1005.8
20260506000033 95 197 0.9 2.6 0.00 0.00 0.00 35 1006.0
20260505234538 97 0 0.0 1.7 0.00 0.00 0.00 33 1006.0
20260505233035 93 232 0.0 2.6 0.00 0.00 0.00 38 1006.0
20260505231533 89 281 0.0 3.5 0.00 0.00 0.00 39 1006.0
20260505230045 91 260 0.9 3.5 0.00 0.00 0.00 39 1005.9
20260505224537 90 274 1.7 6.1 0.00 0.00 0.00 36 1006.2
20260505223036 90 297 2.6 7.0 0.00 0.00 0.00 35 1006.3
20260505221533 90 268 2.6 6.1 0.00 0.00 0.00 36 1006.0
20260505220040 91 268 5.2 8.7 0.00 0.00 0.00 35 1006.3
20260505214535 91 315 4.3 9.6 0.00 0.00 0.00 37 1006.4
20260505213043 91 267 2.6 7.8 0.00 0.00 0.00 35 1006.3
20260505211542 90 278 3.5 8.7 0.00 0.00 0.00 38 1006.3
20260505210033 90 279 2.6 7.0 0.00 0.00 0.00 35 1006.3
20260505204536 90 281 1.7 6.1 0.00 0.00 0.00 42 1006.5
20260505203041 89 198 1.7 7.8 0.00 0.00 0.00 43 1006.4
20260505201536 89 251 2.6 7.8 0.00 0.00 0.00 41 1006.7
20260505200037 88 300 3.5 7.0 0.00 0.00 0.00 39 1006.9
20260505194535 89 255 3.5 7.8 0.00 0.00 0.00 42 1007.0
20260505193044 89 240 4.3 7.0 0.00 0.00 0.00 42 1007.1
20260505191540 88 199 2.6 8.7 0.00 0.00 0.00 41 1007.0
20260505190040 87 278 2.6 9.6 0.00 0.00 0.00 36 1007.3
20260505184536 87 217 3.5 6.1 0.00 0.00 0.00 46 1007.3
20260505183035 86 268 3.5 8.7 0.00 0.00 0.00 49 1007.7
20260505181533 85 208 2.6 5.2 0.00 0.00 0.00 56 1008.0
20260505180043 85 237 2.6 7.8 0.00 0.00 0.00 61 1008.4
20260505174535 83 240 2.6 10.4 0.00 0.00 0.00 62 1008.4
20260505173035 82 264 5.2 10.4 0.00 0.00 0.00 64 1008.6
20260505171534 81 272 5.2 10.4 0.00 0.00 0.00 66 1008.8
20260505170038 80 200 6.1 12.2 0.00 0.00 0.00 68 1008.8
20260505164540 79 207 5.2 8.7 0.00 0.00 0.00 70 1008.8
20260505163040 78 213 6.1 10.4 0.00 0.00 0.00 73 1008.6
20260505161535 76 244 6.1 10.4 0.00 0.00 0.00 75 1008.5
20260505153042 74 255 7.0 13.0 0.00 0.00 0.00 78 1008.6
20260505151538 73 226 8.7 16.5 0.00 0.00 0.00 79 1008.7